Date String (YYYY-MM-DD hh:mm:ss) UTC,Instrument flags,Ambient pressure (hPa),Sample flow (lpm),Bypass flow (lpm),Sample temperature (°C),Ambient temperature (°C),ASC tube jacket temperature (°C),LED temperature (°C),Box temperature (°C),Sample RH (%),Span deviation,Mass concentration (μg/m³),Mass concentration (μg/m³),Mass concentration (μg/m³)
DateTimeUTC,F1_M11,P_M11,Q1_M11,Q2_M11,T1_M11,T2_M11,T3_M11,T4_M11,T5_M11,U1_M11,ZSPAN_M11,X0_M11,X2_M11,X1_M11
2021-11-04 18:00:00,,0828.5,5.01,0.00,28.1,27.5,00.0,37.0,30.0,14.2,0003.3,0011.78,0004.79,0004.16
2021-11-04 18:01:00,,0828.5,4.99,0.00,28.2,27.5,00.0,37.0,30.1,13.9,0003.1,0011.41,0004.74,0004.13
2021-11-04 18:02:00,,0828.5,4.99,0.00,28.2,27.5,00.0,37.0,30.1,14.1,0003.1,0011.00,0004.69,0004.09
2021-11-04 18:03:00,,0828.5,5.00,0.00,28.2,27.5,00.0,37.1,30.1,14.2,0003.4,0011.33,0004.66,0004.06
2021-11-04 18:04:00,,0828.5,5.01,0.00,28.2,27.6,00.0,37.1,30.1,14.1,0002.8,0012.06,0004.60,0004.02
2021-11-04 18:05:00,,0828.4,4.99,0.00,28.3,27.6,00.0,37.1,30.2,13.8,0002.5,0012.28,0004.53,0003.97
2021-11-04 18:06:00,,0828.3,5.00,0.00,28.3,27.6,00.0,37.1,30.2,13.8,0002.4,0012.65,0004.48,0003.91
2021-11-04 18:07:00,,0828.4,5.00,0.00,28.3,27.6,00.0,37.1,30.2,13.6,0002.1,0012.70,0004.44,0003.87
2021-11-04 18:08:00,,0828.4,5.00,0.00,28.3,27.6,00.0,37.2,30.2,13.8,0002.0,0013.09,0004.38,0003.83
2021-11-04 18:09:00,,0828.4,5.02,0.00,28.4,27.7,00.0,37.2,30.2,13.6,0002.3,0013.21,0004.35,0003.80
2021-11-04 18:10:00,,0828.3,4.99,0.00,28.4,27.7,00.0,37.2,30.3,13.7,0002.2,0012.27,0004.25,0003.76
2021-11-04 18:11:00,,0828.3,5.00,0.00,28.4,27.7,00.0,37.2,30.3,13.8,0002.8,0011.87,0004.20,0003.73
2021-11-04 18:12:00,,0828.3,5.00,0.00,28.4,27.7,00.0,37.3,30.3,13.8,0003.7,0011.92,0004.18,0003.71
2021-11-04 18:13:00,,0828.3,5.00,0.00,28.4,27.7,00.0,37.3,30.3,14.0,0003.7,0012.24,0004.17,0003.72
2021-11-04 18:14:00,,0828.3,5.01,0.00,28.4,27.8,00.0,37.3,30.3,14.2,0002.4,0012.56,0004.18,0003.72
2021-11-04 18:15:00,,0828.2,4.99,0.00,28.5,27.8,00.0,37.3,30.3,14.3,0002.4,0012.09,0004.23,0003.74
2021-11-04 18:16:00,,0828.3,5.01,0.00,28.5,27.8,00.0,37.4,30.4,14.2,0003.1,0012.00,0004.28,0003.76
2021-11-04 18:17:00,,0828.3,5.00,0.00,28.5,27.8,00.0,37.4,30.4,14.3,0002.8,0010.75,0004.30,0003.79
2021-11-04 18:18:00,,0828.3,4.99,0.00,28.5,27.8,00.0,37.4,30.4,14.6,0002.9,0010.23,0004.30,0003.82
2021-11-04 18:19:00,,0828.4,5.00,0.00,28.5,27.9,00.0,37.4,30.4,14.4,0002.9,0010.14,0004.32,0003.85
2021-11-04 18:20:00,,0828.3,4.99,0.00,28.6,27.9,00.0,37.4,30.4,14.4,0002.7,0009.97,0004.34,0003.88
2021-11-04 18:21:00,,0828.2,5.00,0.00,28.6,27.9,00.0,37.4,30.5,14.4,0002.9,0009.97,0004.33,0003.90
2021-11-04 18:22:00,,0828.4,5.01,0.00,28.6,27.9,00.0,37.5,30.5,14.0,0002.7,0010.03,0004.34,0003.92
2021-11-04 18:23:00,,0828.2,5.00,0.00,28.6,27.9,00.0,37.5,30.5,13.9,0002.6,0009.94,0004.34,0003.93
2021-11-04 18:24:00,,0828.2,4.99,0.00,28.7,28.0,00.0,37.5,30.5,13.9,0002.8,0010.05,0004.35,0003.94
2021-11-04 18:25:00,,0828.1,5.01,0.00,28.7,28.0,00.0,37.5,30.5,13.8,0003.6,0010.28,0004.34,0003.93
2021-11-04 18:26:00,,0828.2,5.00,0.00,28.7,28.0,00.0,37.5,30.6,13.8,0003.5,0009.97,0004.34,0003.92
2021-11-04 18:27:00,,0828.2,5.00,0.00,28.7,28.0,00.0,37.6,30.6,13.8,0003.3,0009.89,0004.33,0003.90
2021-11-04 18:28:00,,0828.1,5.00,0.00,28.7,28.0,00.0,37.6,30.6,13.9,0003.7,0010.84,0004.37,0003.90
2021-11-04 18:29:00,,0828.1,5.00,0.00,28.7,28.1,00.0,37.6,30.6,13.9,0003.4,0011.18,0004.38,0003.89
2021-11-04 18:30:00,,0828.1,4.99,0.00,28.8,28.1,00.0,37.6,30.6,13.8,0003.0,0010.83,0004.39,0003.87
2021-11-04 18:31:00,,0828.0,5.00,0.00,28.8,28.1,00.0,37.7,30.7,14.0,0002.9,0011.08,0004.39,0003.87
2021-11-04 18:32:00,,0828.0,5.01,0.00,28.8,28.1,00.0,37.7,30.7,13.7,0002.9,0011.29,0004.42,0003.86
2021-11-04 18:33:00,,0828.1,5.00,0.00,28.8,28.1,00.0,37.7,30.7,13.5,0003.1,0011.32,0004.44,0003.87
2021-11-04 18:34:00,,0828.0,5.00,0.00,28.8,28.1,00.0,37.7,30.7,13.4,0003.1,0011.25,0004.43,0003.86
2021-11-04 18:35:00,,0828.0,5.01,0.00,28.9,28.2,00.0,37.7,30.7,13.3,0003.0,0010.84,0004.39,0003.83
2021-11-04 18:36:00,,0828.0,5.00,0.00,28.9,28.2,00.0,37.7,30.8,13.1,0002.7,0009.82,0004.33,0003.81
2021-11-04 18:37:00,,0827.9,5.01,0.00,28.9,28.2,00.0,37.8,30.8,13.0,0002.6,0009.66,0004.25,0003.78
2021-11-04 18:38:00,,0827.9,5.00,0.00,28.9,28.2,00.0,37.8,30.8,13.0,0002.1,0009.60,0004.19,0003.76
2021-11-04 18:39:00,,0827.9,5.00,0.00,29.0,28.3,00.0,37.8,30.8,13.1,0001.7,0009.31,0004.11,0003.74
2021-11-04 18:40:00,,0827.9,4.98,0.00,29.0,28.3,00.0,37.8,30.8,13.2,0002.0,0008.76,0004.07,0003.71
2021-11-04 18:41:00,,0827.9,5.01,0.00,29.0,28.3,00.0,37.9,30.9,13.5,0002.2,0008.64,0004.04,0003.71
2021-11-04 18:42:00,,0827.9,5.00,0.00,29.0,28.3,00.0,37.9,30.9,13.5,0001.8,0008.42,0004.04,0003.71
2021-11-04 18:43:00,,0827.9,4.99,0.00,29.1,28.3,00.0,37.9,30.9,13.6,0001.7,0008.22,0004.03,0003.71
2021-11-04 18:44:00,,0827.9,5.00,0.00,29.1,28.3,00.0,37.9,30.9,13.4,0001.6,0008.07,0003.99,0003.70
2021-11-04 18:45:00,,0827.8,5.00,0.00,29.1,28.4,00.0,37.9,31.0,13.5,0001.8,0008.09,0003.99,0003.70
2021-11-04 18:46:00,,0827.8,5.00,0.00,29.1,28.4,00.0,38.0,31.0,13.4,0001.5,0008.12,0004.02,0003.72
2021-11-04 18:47:00,,0827.8,5.01,0.00,29.1,28.4,00.0,38.0,31.0,13.3,0001.3,0008.83,0004.06,0003.75
2021-11-04 18:48:00,,0827.8,5.00,0.00,29.2,28.4,00.0,38.0,31.0,13.4,0000.9,0009.74,0004.14,0003.81
2021-11-04 18:49:00,,0827.8,5.00,0.00,29.2,28.4,00.0,38.0,31.0,13.2,0001.7,0010.42,0004.21,0003.85
2021-11-04 18:50:00,,0827.8,5.00,0.00,29.2,28.5,00.0,38.0,31.0,13.1,0001.3,0009.97,0004.27,0003.88
2021-11-04 18:51:00,,0827.7,4.99,0.00,29.2,28.5,00.0,38.1,31.1,13.2,0001.3,0009.82,0004.28,0003.90
2021-11-04 18:52:00,,0827.8,5.02,0.00,29.2,28.5,00.0,38.1,31.1,13.2,0001.0,0010.11,0004.28,0003.92
2021-11-04 18:53:00,,0827.7,5.01,0.00,29.3,28.5,00.0,38.1,31.1,13.2,0001.2,0010.26,0004.30,0003.94
2021-11-04 18:54:00,,0827.6,4.99,0.00,29.3,28.6,00.0,38.1,31.1,13.2,0001.4,0010.30,0004.32,0003.96
2021-11-04 18:55:00,,0827.6,5.00,0.00,29.3,28.6,00.0,38.1,31.1,13.3,0001.6,0010.41,0004.34,0003.98
2021-11-04 18:56:00,,0827.6,5.00,0.00,29.3,28.6,00.0,38.2,31.2,13.1,0000.6,0010.77,0004.36,0004.00
2021-11-04 18:57:00,,0827.6,5.01,0.00,29.3,28.6,00.0,38.2,31.2,13.0,0000.4,0010.73,0004.37,0004.00
2021-11-04 18:58:00,,0827.6,5.00,0.00,29.4,28.6,00.0,38.2,31.2,13.0,0000.1,0010.18,0004.39,0004.01
2021-11-04 18:59:00,,0827.5,4.99,0.00,29.4,28.7,00.0,38.2,31.2,13.2,0000.5,0009.44,0004.37,0004.00
